Time,TemperatureF,DewpointF,PressureIn,WindDirection,WindDirectionDegrees,WindSpeedMPH,WindSpeedGustMPH,Humidity,HourlyPrecipIn,Conditions,Clouds,dailyrainin,SolarRadiationWatts/m^2,SoftwareType,DateUTC
2013-10-24 00:01:00,35.6,29.7,29.96,WSW,242,2.0,6.0,79,0.00,,,0.00,0.0,meteohub,2013-10-24 04:01:00,
2013-10-24 00:02:00,35.6,29.7,29.96,WSW,242,0.0,6.0,79,0.00,,,0.00,0.0,meteohub,2013-10-24 04:02:00,
2013-10-24 00:04:00,35.4,29.8,29.96,SSW,196,0.0,6.0,80,0.00,,,0.00,0.0,meteohub,2013-10-24 04:04:00,
2013-10-24 00:07:00,35.4,29.8,29.96,South,191,3.0,5.0,80,0.00,,,0.00,0.0,meteohub,2013-10-24 04:07:00,
2013-10-24 00:12:00,35.4,29.8,29.97,SSW,207,0.0,5.0,80,0.00,,,0.00,0.0,meteohub,2013-10-24 04:12:00,
2013-10-24 00:17:00,35.2,29.7,29.96,WSW,256,0.0,5.0,80,0.00,,,0.00,0.0,meteohub,2013-10-24 04:17:00,
2013-10-24 00:22:00,35.2,29.7,29.97,WSW,256,0.0,4.0,80,0.00,,,0.00,0.0,meteohub,2013-10-24 04:22:00,
2013-10-24 00:27:00,35.2,30.0,29.97,East,92,0.0,4.0,81,0.00,,,0.00,0.0,meteohub,2013-10-24 04:27:00,
2013-10-24 00:32:00,35.1,29.5,29.97,SE,137,0.0,4.0,80,0.00,,,0.00,0.0,meteohub,2013-10-24 04:32:00,
2013-10-24 00:37:00,35.1,29.5,29.97,SE,136,0.0,4.0,80,0.00,,,0.00,0.0,meteohub,2013-10-24 04:37:00,
2013-10-24 00:42:00,34.9,29.3,29.97,NW,313,0.0,4.0,80,0.00,,,0.00,0.0,meteohub,2013-10-24 04:42:00,
2013-10-24 00:47:00,34.9,29.3,29.98,WNW,298,0.0,4.0,80,0.00,,,0.00,0.0,meteohub,2013-10-24 04:47:00,
2013-10-24 00:53:00,34.9,29.3,29.98,SW,225,0.0,3.0,80,0.00,,,0.00,0.0,meteohub,2013-10-24 04:53:00,
2013-10-24 00:59:00,34.9,29.3,29.99,SSW,196,1.0,3.0,80,0.00,,,0.00,0.0,meteohub,2013-10-24 04:59:00,
2013-10-24 01:05:00,34.9,29.3,29.99,South,171,1.0,4.0,80,0.00,,,0.00,0.0,meteohub,2013-10-24 05:05:00,
2013-10-24 01:11:00,34.9,29.1,29.99,SSW,195,1.0,5.0,79,0.00,,,0.00,0.0,meteohub,2013-10-24 05:11:00,
2013-10-24 01:17:00,34.9,29.1,29.98,NNE,28,3.0,5.0,79,0.00,,,0.00,0.0,meteohub,2013-10-24 05:17:00,
2013-10-24 01:22:00,35.1,29.1,29.97,NNW,348,0.0,12.0,79,0.00,,,0.00,0.0,meteohub,2013-10-24 05:22:00,
2013-10-24 01:27:00,35.2,28.8,29.97,North,355,0.0,12.0,77,0.00,,,0.00,0.0,meteohub,2013-10-24 05:27:00,
2013-10-24 01:32:00,35.2,28.4,29.97,NNE,28,1.0,12.0,76,0.00,,,0.00,0.0,meteohub,2013-10-24 05:32:00,
2013-10-24 01:37:00,35.2,28.4,29.97,NW,311,3.0,10.0,76,0.00,,,0.00,0.0,meteohub,2013-10-24 05:37:00,
2013-10-24 01:42:00,35.4,28.9,29.97,North,5,10.0,12.0,77,0.00,,,0.00,0.0,meteohub,2013-10-24 05:42:00,
2013-10-24 01:47:00,35.4,28.6,29.97,NNE,19,3.0,12.0,76,0.00,,,0.00,0.0,meteohub,2013-10-24 05:47:00,
2013-10-24 01:52:00,35.4,28.2,29.97,SW,233,3.0,12.0,75,0.00,,,0.00,0.0,meteohub,2013-10-24 05:52:00,
2013-10-24 01:57:00,35.4,28.0,29.98,North,9,4.0,18.0,74,0.00,,,0.00,0.0,meteohub,2013-10-24 05:57:00,
2013-10-24 02:02:00,35.4,28.2,29.98,North,355,5.0,18.0,75,0.00,,,0.00,0.0,meteohub,2013-10-24 06:02:00,
2013-10-24 02:07:00,35.4,28.0,29.98,North,5,2.0,18.0,74,0.00,,,0.00,0.0,meteohub,2013-10-24 06:07:00,
2013-10-24 02:12:00,35.4,28.2,29.98,NNW,343,2.0,12.0,75,0.00,,,0.00,0.0,meteohub,2013-10-24 06:12:00,
2013-10-24 02:17:00,35.4,28.2,29.98,North,11,6.0,12.0,75,0.00,,,0.00,0.0,meteohub,2013-10-24 06:17:00,
2013-10-24 02:22:00,35.4,28.2,29.97,North,5,2.0,14.0,75,0.00,,,0.00,0.0,meteohub,2013-10-24 06:22:00,
2013-10-24 02:27:00,35.4,28.2,29.97,NNE,28,3.0,14.0,75,0.00,,,0.00,0.0,meteohub,2013-10-24 06:27:00,
2013-10-24 02:32:00,35.4,28.0,29.97,North,0,2.0,14.0,74,0.00,,,0.00,0.0,meteohub,2013-10-24 06:32:00,
2013-10-24 02:37:00,35.2,28.0,29.97,North,355,3.0,12.0,75,0.00,,,0.00,0.0,meteohub,2013-10-24 06:37:00,
2013-10-24 02:42:00,35.2,28.0,29.97,North,355,5.0,13.0,75,0.00,,,0.00,0.0,meteohub,2013-10-24 06:42:00,
2013-10-24 02:47:00,35.2,27.9,29.97,NNE,26,2.0,13.0,74,0.00,,,0.00,0.0,meteohub,2013-10-24 06:47:00,
2013-10-24 02:52:00,35.4,28.0,29.98,North,355,1.0,13.0,74,0.00,,,0.00,0.0,meteohub,2013-10-24 06:52:00,
2013-10-24 02:57:00,35.4,28.0,29.99,North,5,2.0,12.0,74,0.00,,,0.00,0.0,meteohub,2013-10-24 06:57:00,
2013-10-24 03:02:00,35.4,28.0,29.99,NNW,336,0.0,12.0,74,0.00,,,0.00,0.0,meteohub,2013-10-24 07:02:00,
2013-10-24 03:07:00,35.4,28.0,29.99,North,5,7.0,12.0,74,0.00,,,0.00,0.0,meteohub,2013-10-24 07:07:00,
2013-10-24 03:12:00,35.4,28.0,29.99,NNW,343,9.0,12.0,74,0.00,,,0.00,0.0,meteohub,2013-10-24 07:12:00,
2013-10-24 03:17:00,35.4,28.2,29.99,NNE,12,4.0,12.0,75,0.00,,,0.00,0.0,meteohub,2013-10-24 07:17:00,
2013-10-24 03:22:00,35.4,28.0,30.00,North,5,2.0,15.0,74,0.00,,,0.00,0.0,meteohub,2013-10-24 07:22:00,
2013-10-24 03:27:00,35.4,28.0,30.00,North,355,2.0,16.0,74,0.00,,,0.00,0.0,meteohub,2013-10-24 07:27:00,
2013-10-24 03:32:00,35.6,28.2,30.01,North,355,2.0,16.0,74,0.00,,,0.00,0.0,meteohub,2013-10-24 07:32:00,
2013-10-24 03:37:00,35.4,28.0,30.01,SSW,213,1.0,16.0,74,0.00,,,0.00,0.0,meteohub,2013-10-24 07:37:00,
2013-10-24 03:42:00,35.4,28.2,30.01,North,10,2.0,10.0,75,0.00,,,0.00,0.0,meteohub,2013-10-24 07:42:00,
2013-10-24 03:47:00,35.4,28.2,30.01,North,5,0.0,10.0,75,0.00,,,0.00,0.0,meteohub,2013-10-24 07:47:00,
2013-10-24 03:52:00,35.4,28.2,30.00,North,355,3.0,9.0,75,0.00,,,0.00,0.0,meteohub,2013-10-24 07:52:00,
2013-10-24 03:57:00,35.4,28.2,30.01,North,9,2.0,9.0,75,0.00,,,0.00,0.0,meteohub,2013-10-24 07:57:00,
2013-10-24 04:02:00,35.4,28.2,30.00,SW,224,0.0,11.0,75,0.00,,,0.00,0.0,meteohub,2013-10-24 08:02:00,
2013-10-24 04:07:00,35.2,28.0,30.00,NNW,328,1.0,11.0,75,0.00,,,0.00,0.0,meteohub,2013-10-24 08:07:00,
2013-10-24 04:12:00,35.2,28.0,30.00,North,350,1.0,11.0,75,0.00,,,0.00,0.0,meteohub,2013-10-24 08:12:00,
2013-10-24 04:17:00,35.2,28.4,30.00,North,355,2.0,7.0,76,0.00,,,0.00,0.0,meteohub,2013-10-24 08:17:00,
2013-10-24 04:22:00,35.2,28.4,30.01,North,0,1.0,10.0,76,0.00,,,0.00,0.0,meteohub,2013-10-24 08:22:00,
2013-10-24 04:27:00,35.2,28.4,30.01,North,5,3.0,10.0,76,0.00,,,0.00,0.0,meteohub,2013-10-24 08:27:00,
2013-10-24 04:32:00,35.2,28.4,30.01,North,5,1.0,10.0,76,0.00,,,0.00,0.0,meteohub,2013-10-24 08:32:00,
2013-10-24 04:37:00,35.2,28.4,30.01,NNE,21,2.0,10.0,76,0.00,,,0.00,0.0,meteohub,2013-10-24 08:37:00,
2013-10-24 04:42:00,35.2,28.4,30.01,NNE,13,8.0,11.0,76,0.00,,,0.00,0.0,meteohub,2013-10-24 08:42:00,
2013-10-24 04:47:00,35.2,28.4,30.01,South,182,1.0,11.0,76,0.00,,,0.00,0.0,meteohub,2013-10-24 08:47:00,
2013-10-24 04:52:00,35.2,28.4,30.01,North,355,1.0,12.0,76,0.00,,,0.00,0.0,meteohub,2013-10-24 08:52:00,
2013-10-24 04:57:00,35.2,28.4,30.01,North,5,2.0,12.0,76,0.00,,,0.00,0.0,meteohub,2013-10-24 08:57:00,
2013-10-24 05:02:00,35.2,28.8,30.01,North,349,0.0,12.0,77,0.00,,,0.00,0.0,meteohub,2013-10-24 09:02:00,
2013-10-24 05:07:00,35.1,28.6,30.01,North,355,5.0,8.0,77,0.00,,,0.00,0.0,meteohub,2013-10-24 09:07:00,
2013-10-24 05:12:00,35.1,28.6,30.02,North,9,3.0,10.0,77,0.00,,,0.00,0.0,meteohub,2013-10-24 09:12:00,
2013-10-24 05:17:00,34.9,28.4,30.02,North,0,2.0,10.0,77,0.00,,,0.00,0.0,meteohub,2013-10-24 09:17:00,
2013-10-24 05:22:00,34.9,28.8,30.02,NNE,14,5.0,10.0,78,0.00,,,0.00,0.0,meteohub,2013-10-24 09:22:00,
2013-10-24 05:27:00,35.1,28.6,30.02,North,0,1.0,10.0,77,0.00,,,0.00,0.0,meteohub,2013-10-24 09:27:00,
2013-10-24 05:32:00,35.1,28.6,30.02,North,355,2.0,10.0,77,0.00,,,0.00,0.0,meteohub,2013-10-24 09:32:00,
2013-10-24 05:37:00,35.1,28.6,30.02,SW,223,1.0,10.0,77,0.00,,,0.00,0.0,meteohub,2013-10-24 09:37:00,
2013-10-24 05:42:00,35.1,28.6,30.03,NNW,348,3.0,10.0,77,0.00,,,0.00,0.0,meteohub,2013-10-24 09:42:00,
2013-10-24 05:47:00,35.1,28.6,30.03,NNW,344,2.0,9.0,77,0.00,,,0.00,0.0,meteohub,2013-10-24 09:47:00,
2013-10-24 05:52:00,35.1,28.6,30.03,North,350,0.0,8.0,77,0.00,,,0.00,0.0,meteohub,2013-10-24 09:52:00,
2013-10-24 05:57:00,35.1,28.6,30.03,North,5,3.0,8.0,77,0.00,,,0.00,0.0,meteohub,2013-10-24 09:57:00,
2013-10-24 06:02:00,35.1,28.6,30.03,North,5,1.0,9.0,77,0.00,,,0.00,0.0,meteohub,2013-10-24 10:02:00,
2013-10-24 06:07:00,35.1,28.6,30.03,North,5,5.0,9.0,77,0.00,,,0.00,0.0,meteohub,2013-10-24 10:07:00,
2013-10-24 06:12:00,35.2,28.8,30.04,North,351,3.0,10.0,77,0.00,,,0.00,0.0,meteohub,2013-10-24 10:12:00,
2013-10-24 06:17:00,35.2,28.8,30.04,North,5,2.0,10.0,77,0.00,,,0.00,0.0,meteohub,2013-10-24 10:17:00,
2013-10-24 06:22:00,35.2,28.8,30.04,North,0,4.0,11.0,77,0.00,,,0.00,0.0,meteohub,2013-10-24 10:22:00,
2013-10-24 06:27:00,35.2,28.8,30.04,North,5,2.0,11.0,77,0.00,,,0.00,0.0,meteohub,2013-10-24 10:27:00,
2013-10-24 06:32:00,35.2,28.8,30.04,North,5,0.0,11.0,77,0.00,,,0.00,0.0,meteohub,2013-10-24 10:32:00,
2013-10-24 06:37:00,35.2,29.1,30.05,North,5,2.0,9.0,78,0.00,,,0.00,0.0,meteohub,2013-10-24 10:37:00,
2013-10-24 06:42:00,35.2,29.1,30.04,North,5,2.0,9.0,78,0.00,,,0.00,0.0,meteohub,2013-10-24 10:42:00,
2013-10-24 06:47:00,35.1,28.6,30.05,NNE,12,3.0,9.0,77,0.00,,,0.00,0.0,meteohub,2013-10-24 10:47:00,
2013-10-24 06:52:00,35.1,28.6,30.05,North,5,1.0,9.0,77,0.00,,,0.00,0.0,meteohub,2013-10-24 10:52:00,
2013-10-24 06:57:00,35.1,28.9,30.05,North,5,4.0,9.0,78,0.00,,,0.00,0.0,meteohub,2013-10-24 10:57:00,
2013-10-24 07:02:00,35.1,28.9,30.06,North,0,1.0,6.0,78,0.00,,,0.00,0.0,meteohub,2013-10-24 11:02:00,
2013-10-24 07:07:00,34.9,28.8,30.05,NNE,19,0.0,7.0,78,0.00,,,0.00,0.0,meteohub,2013-10-24 11:07:00,
2013-10-24 07:12:00,34.9,28.8,30.05,NNE,14,1.0,7.0,78,0.00,,,0.00,0.0,meteohub,2013-10-24 11:12:00,
2013-10-24 07:17:00,34.9,28.4,30.06,SW,236,1.0,7.0,77,0.00,,,0.00,0.0,meteohub,2013-10-24 11:17:00,
2013-10-24 07:22:00,34.9,28.8,30.06,North,355,1.0,4.0,78,0.00,,,0.00,0.0,meteohub,2013-10-24 11:22:00,
2013-10-24 07:27:00,35.1,28.6,30.06,WSW,237,2.0,4.0,77,0.00,,,0.00,0.0,meteohub,2013-10-24 11:27:00,
2013-10-24 07:32:00,35.1,28.6,30.06,North,5,0.0,4.0,77,0.00,,,0.00,0.0,meteohub,2013-10-24 11:32:00,
2013-10-24 07:37:00,35.1,28.6,30.06,NW,306,0.0,4.0,77,0.00,,,0.00,0.0,meteohub,2013-10-24 11:37:00,
2013-10-24 07:42:00,35.1,28.9,30.06,NNE,15,0.0,4.0,78,0.00,,,0.00,0.0,meteohub,2013-10-24 11:42:00,
2013-10-24 07:47:00,35.1,28.9,30.06,NNE,19,1.0,3.0,78,0.00,,,0.00,9.0,meteohub,2013-10-24 11:47:00,
2013-10-24 07:52:00,35.2,28.8,30.06,SSE,150,1.0,3.0,77,0.00,,,0.00,14.0,meteohub,2013-10-24 11:52:00,
2013-10-24 07:57:00,35.4,28.9,30.06,North,5,2.0,3.0,77,0.00,,,0.00,19.0,meteohub,2013-10-24 11:57:00,
2013-10-24 08:02:00,35.6,29.1,30.06,North,5,2.0,5.0,77,0.00,,,0.00,30.0,meteohub,2013-10-24 12:02:00,
2013-10-24 08:07:00,36.0,29.1,30.06,North,5,2.0,9.0,76,0.00,,,0.00,40.0,meteohub,2013-10-24 12:07:00,
2013-10-24 08:12:00,36.3,29.1,30.06,SW,225,0.0,9.0,75,0.00,,,0.00,51.0,meteohub,2013-10-24 12:12:00,
2013-10-24 08:17:00,36.7,29.5,30.07,North,0,0.0,9.0,75,0.00,,,0.00,60.0,meteohub,2013-10-24 12:17:00,
2013-10-24 08:22:00,36.9,29.7,30.07,NNE,17,1.0,5.0,75,0.00,,,0.00,70.0,meteohub,2013-10-24 12:22:00,
2013-10-24 08:27:00,37.0,30.2,30.07,North,9,1.0,5.0,76,0.00,,,0.00,93.0,meteohub,2013-10-24 12:27:00,
2013-10-24 08:32:00,37.2,29.1,30.08,SSW,213,1.0,5.0,72,0.00,,,0.00,37.0,meteohub,2013-10-24 12:32:00,
2013-10-24 08:37:00,37.8,29.1,30.08,ESE,120,0.0,5.0,71,0.00,,,0.00,130.0,meteohub,2013-10-24 12:37:00,
2013-10-24 08:42:00,38.3,29.3,30.08,SSW,211,0.0,5.0,70,0.00,,,0.00,149.0,meteohub,2013-10-24 12:42:00,
2013-10-24 08:47:00,39.0,29.7,30.08,ESE,120,0.0,5.0,69,0.00,,,0.00,162.0,meteohub,2013-10-24 12:47:00,
2013-10-24 08:52:00,39.4,30.0,30.09,North,355,0.0,6.0,69,0.00,,,0.00,181.0,meteohub,2013-10-24 12:52:00,
2013-10-24 08:57:00,39.9,30.6,30.09,NW,325,0.0,6.0,69,0.00,,,0.00,199.0,meteohub,2013-10-24 12:57:00,
2013-10-24 09:02:00,40.3,29.5,30.09,WSW,240,0.0,6.0,65,0.00,,,0.00,213.0,meteohub,2013-10-24 13:02:00,
2013-10-24 09:07:00,40.8,31.1,30.09,South,169,0.0,4.0,68,0.00,,,0.00,230.0,meteohub,2013-10-24 13:07:00,
2013-10-24 09:12:00,41.7,31.3,30.09,SE,143,1.0,4.0,66,0.00,,,0.00,248.0,meteohub,2013-10-24 13:12:00,
2013-10-24 09:17:00,42.3,30.2,30.09,SE,131,0.0,6.0,62,0.00,,,0.00,267.0,meteohub,2013-10-24 13:17:00,
2013-10-24 09:22:00,42.8,31.1,30.10,East,99,0.0,6.0,63,0.00,,,0.00,285.0,meteohub,2013-10-24 13:22:00,
2013-10-24 09:27:00,43.3,31.6,30.10,East,99,0.0,6.0,63,0.00,,,0.00,297.0,meteohub,2013-10-24 13:27:00,
2013-10-24 09:32:00,44.2,32.4,30.09,ESE,104,0.0,6.0,63,0.00,,,0.00,315.0,meteohub,2013-10-24 13:32:00,
2013-10-24 09:37:00,44.4,31.8,30.09,East,83,2.0,4.0,61,0.00,,,0.00,329.0,meteohub,2013-10-24 13:37:00,
2013-10-24 09:42:00,44.1,31.8,30.10,East,83,0.0,6.0,62,0.00,,,0.00,345.0,meteohub,2013-10-24 13:42:00,
2013-10-24 09:47:00,44.4,33.1,30.10,East,97,0.0,6.0,64,0.00,,,0.00,362.0,meteohub,2013-10-24 13:47:00,
2013-10-24 09:52:00,44.6,32.0,30.10,East,90,0.0,6.0,61,0.00,,,0.00,462.0,meteohub,2013-10-24 13:52:00,
2013-10-24 09:57:00,44.8,31.8,30.11,ESE,103,0.0,4.0,60,0.00,,,0.00,448.0,meteohub,2013-10-24 13:57:00,
2013-10-24 10:02:00,44.2,31.3,30.10,East,90,0.0,5.0,60,0.00,,,0.00,220.0,meteohub,2013-10-24 14:02:00,
2013-10-24 10:07:00,44.1,31.1,30.10,ESE,103,0.0,6.0,60,0.00,,,0.00,174.0,meteohub,2013-10-24 14:07:00,
2013-10-24 10:12:00,43.9,31.3,30.11,East,99,0.0,6.0,61,0.00,,,0.00,218.0,meteohub,2013-10-24 14:12:00,
2013-10-24 10:17:00,43.7,32.0,30.10,ESE,122,0.0,5.0,63,0.00,,,0.00,287.0,meteohub,2013-10-24 14:17:00,
2013-10-24 10:22:00,44.1,32.4,30.11,East,80,0.0,5.0,63,0.00,,,0.00,301.0,meteohub,2013-10-24 14:22:00,
2013-10-24 10:27:00,44.2,32.0,30.11,ESE,122,2.0,5.0,62,0.00,,,0.00,338.0,meteohub,2013-10-24 14:27:00,
2013-10-24 10:32:00,44.2,32.0,30.10,East,82,0.0,5.0,62,0.00,,,0.00,239.0,meteohub,2013-10-24 14:32:00,
2013-10-24 10:37:00,44.1,31.8,30.10,East,79,0.0,5.0,62,0.00,,,0.00,598.0,meteohub,2013-10-24 14:37:00,
2013-10-24 10:42:00,44.1,32.7,30.10,ESE,107,0.0,5.0,64,0.00,,,0.00,483.0,meteohub,2013-10-24 14:42:00,
2013-10-24 10:47:00,44.8,32.9,30.10,ESE,105,0.0,4.0,63,0.00,,,0.00,605.0,meteohub,2013-10-24 14:47:00,
2013-10-24 10:52:00,45.1,32.5,30.10,ENE,72,3.0,4.0,61,0.00,,,0.00,589.0,meteohub,2013-10-24 14:52:00,
2013-10-24 10:57:00,45.0,32.0,30.10,East,83,2.0,5.0,60,0.00,,,0.00,698.0,meteohub,2013-10-24 14:57:00,
2013-10-24 11:02:00,45.3,33.1,30.10,ESE,123,2.0,5.0,62,0.00,,,0.00,543.0,meteohub,2013-10-24 15:02:00,
2013-10-24 11:07:00,46.2,33.4,30.10,ESE,119,1.0,5.0,61,0.00,,,0.00,543.0,meteohub,2013-10-24 15:07:00,
2013-10-24 11:12:00,46.9,32.5,30.10,ESE,105,2.0,5.0,57,0.00,,,0.00,584.0,meteohub,2013-10-24 15:12:00,
2013-10-24 11:17:00,47.1,33.4,30.10,ENE,74,0.0,6.0,59,0.00,,,0.00,592.0,meteohub,2013-10-24 15:17:00,
2013-10-24 11:22:00,47.7,33.6,30.11,East,84,0.0,6.0,58,0.00,,,0.00,605.0,meteohub,2013-10-24 15:22:00,
2013-10-24 11:27:00,48.4,34.7,30.10,East,92,0.0,6.0,59,0.00,,,0.00,608.0,meteohub,2013-10-24 15:27:00,
2013-10-24 11:32:00,49.1,34.2,30.10,ESE,103,0.0,5.0,56,0.00,,,0.00,624.0,meteohub,2013-10-24 15:32:00,
2013-10-24 11:37:00,49.1,34.2,30.10,East,94,0.0,5.0,56,0.00,,,0.00,638.0,meteohub,2013-10-24 15:37:00,
2013-10-24 11:42:00,49.3,33.8,30.10,SSE,149,4.0,5.0,55,0.00,,,0.00,647.0,meteohub,2013-10-24 15:42:00,
2013-10-24 11:47:00,49.3,34.2,30.10,ESE,116,4.0,5.0,56,0.00,,,0.00,657.0,meteohub,2013-10-24 15:47:00,
2013-10-24 11:52:00,49.6,34.2,30.11,SE,131,1.0,6.0,55,0.00,,,0.00,635.0,meteohub,2013-10-24 15:52:00,
2013-10-24 11:57:00,49.6,34.2,30.11,SSE,166,0.0,6.0,55,0.00,,,0.00,603.0,meteohub,2013-10-24 15:57:00,
2013-10-24 12:02:00,50.0,34.9,30.10,East,83,0.0,6.0,56,0.00,,,0.00,650.0,meteohub,2013-10-24 16:02:00,
2013-10-24 12:07:00,50.2,34.2,30.10,East,88,8.0,8.0,54,0.00,,,0.00,668.0,meteohub,2013-10-24 16:07:00,
2013-10-24 12:12:00,49.8,34.3,30.09,ESE,107,1.0,8.0,55,0.00,,,0.00,626.0,meteohub,2013-10-24 16:12:00,
2013-10-24 12:17:00,50.2,33.6,30.09,East,101,0.0,8.0,53,0.00,,,0.00,700.0,meteohub,2013-10-24 16:17:00,
2013-10-24 12:22:00,49.8,34.7,30.09,ESE,104,1.0,8.0,56,0.00,,,0.00,701.0,meteohub,2013-10-24 16:22:00,
2013-10-24 12:27:00,50.2,35.6,30.09,ESE,118,0.0,8.0,57,0.00,,,0.00,703.0,meteohub,2013-10-24 16:27:00,
2013-10-24 12:32:00,50.9,35.2,30.09,SE,127,0.0,8.0,55,0.00,,,0.00,689.0,meteohub,2013-10-24 16:32:00,
2013-10-24 12:37:00,51.1,36.0,30.10,SE,146,5.0,8.0,56,0.00,,,0.00,715.0,meteohub,2013-10-24 16:37:00,
2013-10-24 12:42:00,51.6,35.6,30.10,East,81,0.0,6.0,54,0.00,,,0.00,721.0,meteohub,2013-10-24 16:42:00,
2013-10-24 12:47:00,51.8,35.2,30.10,ENE,70,0.0,8.0,53,0.00,,,0.00,708.0,meteohub,2013-10-24 16:47:00,
2013-10-24 12:52:00,51.6,36.5,30.09,ESE,109,1.0,8.0,56,0.00,,,0.00,722.0,meteohub,2013-10-24 16:52:00,
2013-10-24 12:57:00,52.0,35.8,30.09,SSE,166,0.0,6.0,54,0.00,,,0.00,701.0,meteohub,2013-10-24 16:57:00,
2013-10-24 13:02:00,52.3,36.1,30.09,South,190,1.0,6.0,54,0.00,,,0.00,577.0,meteohub,2013-10-24 17:02:00,
2013-10-24 13:07:00,52.5,36.9,30.09,East,96,1.0,6.0,55,0.00,,,0.00,729.0,meteohub,2013-10-24 17:07:00,
2013-10-24 13:12:00,52.5,36.9,30.09,ENE,71,1.0,6.0,55,0.00,,,0.00,668.0,meteohub,2013-10-24 17:12:00,
2013-10-24 13:17:00,52.7,37.0,30.09,ESE,121,2.0,6.0,55,0.00,,,0.00,731.0,meteohub,2013-10-24 17:17:00,
2013-10-24 13:22:00,52.9,37.2,30.08,SSE,148,1.0,6.0,55,0.00,,,0.00,731.0,meteohub,2013-10-24 17:22:00,
2013-10-24 13:27:00,52.9,36.7,30.08,SE,143,1.0,6.0,54,0.00,,,0.00,731.0,meteohub,2013-10-24 17:27:00,
2013-10-24 13:32:00,52.5,36.9,30.08,SE,134,0.0,7.0,55,0.00,,,0.00,740.0,meteohub,2013-10-24 17:32:00,
2013-10-24 13:37:00,52.3,36.7,30.07,East,100,0.0,7.0,55,0.00,,,0.00,733.0,meteohub,2013-10-24 17:37:00,
2013-10-24 13:42:00,52.9,37.6,30.07,SE,142,4.0,6.0,56,0.00,,,0.00,721.0,meteohub,2013-10-24 17:42:00,
2013-10-24 13:47:00,52.7,37.9,30.07,SSE,162,2.0,6.0,57,0.00,,,0.00,95.0,meteohub,2013-10-24 17:47:00,
2013-10-24 13:52:00,52.5,37.2,30.07,ESE,105,1.0,6.0,56,0.00,,,0.00,102.0,meteohub,2013-10-24 17:52:00,
2013-10-24 13:57:00,52.3,38.5,30.06,ESE,118,2.0,7.0,59,0.00,,,0.00,98.0,meteohub,2013-10-24 17:57:00,
2013-10-24 14:02:00,52.5,38.7,30.06,ENE,77,1.0,7.0,59,0.00,,,0.00,153.0,meteohub,2013-10-24 18:02:00,
2013-10-24 14:07:00,52.9,38.5,30.06,ENE,75,0.0,7.0,58,0.00,,,0.00,84.0,meteohub,2013-10-24 18:07:00,
2013-10-24 14:12:00,52.9,38.5,30.06,ESE,113,1.0,7.0,58,0.00,,,0.00,232.0,meteohub,2013-10-24 18:12:00,
2013-10-24 14:17:00,53.4,38.5,30.06,East,82,1.0,5.0,57,0.00,,,0.00,571.0,meteohub,2013-10-24 18:17:00,
2013-10-24 14:22:00,53.8,37.9,30.06,South,178,0.0,9.0,55,0.00,,,0.00,257.0,meteohub,2013-10-24 18:22:00,
2013-10-24 14:27:00,54.0,38.7,30.06,South,169,2.0,9.0,56,0.00,,,0.00,237.0,meteohub,2013-10-24 18:27:00,
2013-10-24 14:32:00,53.8,38.5,30.06,ENE,70,0.0,6.0,56,0.00,,,0.00,260.0,meteohub,2013-10-24 18:32:00,
2013-10-24 14:37:00,53.2,36.5,30.05,ENE,62,0.0,6.0,53,0.00,,,0.00,246.0,meteohub,2013-10-24 18:37:00,
2013-10-24 14:42:00,52.7,36.5,30.05,North,351,0.0,6.0,54,0.00,,,0.00,207.0,meteohub,2013-10-24 18:42:00,
2013-10-24 14:47:00,52.5,38.7,30.06,NNW,335,1.0,5.0,59,0.00,,,0.00,192.0,meteohub,2013-10-24 18:47:00,
2013-10-24 14:52:00,52.3,37.9,30.06,ESE,104,0.0,4.0,58,0.00,,,0.00,146.0,meteohub,2013-10-24 18:52:00,
2013-10-24 14:57:00,51.6,37.4,30.05,ESE,121,1.0,4.0,58,0.00,,,0.00,132.0,meteohub,2013-10-24 18:57:00,
2013-10-24 15:02:00,51.3,37.0,30.05,East,90,0.0,4.0,58,0.00,,,0.00,104.0,meteohub,2013-10-24 19:02:00,
2013-10-24 15:07:00,50.7,36.5,30.05,East,90,0.0,4.0,58,0.00,,,0.00,105.0,meteohub,2013-10-24 19:07:00,
2013-10-24 15:12:00,50.4,38.3,30.05,East,90,0.0,4.0,63,0.00,,,0.00,93.0,meteohub,2013-10-24 19:12:00,
2013-10-24 15:17:00,50.5,39.2,30.05,East,94,0.0,2.0,65,0.00,,,0.00,65.0,meteohub,2013-10-24 19:17:00,
2013-10-24 15:22:00,50.5,37.6,30.04,NNW,343,0.0,2.0,61,0.00,,,0.00,79.0,meteohub,2013-10-24 19:22:00,
2013-10-24 15:27:00,50.4,38.3,30.04,NNW,343,0.0,2.0,63,0.00,,,0.00,104.0,meteohub,2013-10-24 19:27:00,
2013-10-24 15:32:00,50.4,39.0,30.04,NNW,343,0.0,1.0,65,0.00,,,0.00,120.0,meteohub,2013-10-24 19:32:00,
2013-10-24 15:37:00,50.5,37.9,30.04,NNW,343,0.0,0.0,62,0.00,,,0.00,130.0,meteohub,2013-10-24 19:37:00,
2013-10-24 15:42:00,50.5,38.5,30.04,East,94,0.0,0.0,63,0.00,,,0.00,113.0,meteohub,2013-10-24 19:42:00,
2013-10-24 15:47:00,50.7,38.7,30.04,SE,129,0.0,1.0,63,0.00,,,0.00,156.0,meteohub,2013-10-24 19:47:00,
2013-10-24 15:52:00,51.1,38.8,30.04,North,5,0.0,2.0,63,0.00,,,0.00,206.0,meteohub,2013-10-24 19:52:00,
2013-10-24 15:57:00,51.3,39.6,30.04,NE,43,1.0,4.0,64,0.00,,,0.00,169.0,meteohub,2013-10-24 19:57:00,
2013-10-24 16:02:00,51.4,38.5,30.04,East,88,0.0,4.0,61,0.00,,,0.00,132.0,meteohub,2013-10-24 20:02:00,
2013-10-24 16:07:00,50.9,38.3,30.04,East,91,0.0,4.0,62,0.00,,,0.00,128.0,meteohub,2013-10-24 20:07:00,
2013-10-24 16:12:00,50.7,40.1,30.04,ESE,108,0.0,4.0,67,0.00,,,0.00,135.0,meteohub,2013-10-24 20:12:00,
2013-10-24 16:17:00,51.1,40.1,30.04,NNE,20,0.0,2.0,66,0.00,,,0.00,109.0,meteohub,2013-10-24 20:17:00,
2013-10-24 16:22:00,51.3,39.6,30.04,WSW,246,0.0,2.0,64,0.00,,,0.00,100.0,meteohub,2013-10-24 20:22:00,
2013-10-24 16:27:00,51.4,38.8,30.04,North,350,0.0,1.0,62,0.00,,,0.00,86.0,meteohub,2013-10-24 20:27:00,
2013-10-24 16:32:00,51.4,38.5,30.04,ENE,61,0.0,2.0,61,0.00,,,0.00,102.0,meteohub,2013-10-24 20:32:00,
2013-10-24 16:37:00,51.6,39.4,30.05,NE,53,0.0,2.0,63,0.00,,,0.00,98.0,meteohub,2013-10-24 20:37:00,
2013-10-24 16:42:00,51.6,39.4,30.05,NE,53,0.0,2.0,63,0.00,,,0.00,113.0,meteohub,2013-10-24 20:42:00,
2013-10-24 16:47:00,51.6,39.9,30.05,NE,53,0.0,1.0,64,0.00,,,0.00,98.0,meteohub,2013-10-24 20:47:00,
2013-10-24 16:52:00,51.6,39.4,30.05,NE,51,0.0,1.0,63,0.00,,,0.00,100.0,meteohub,2013-10-24 20:52:00,
2013-10-24 16:57:00,51.6,39.0,30.04,NE,51,0.0,1.0,62,0.00,,,0.00,95.0,meteohub,2013-10-24 20:57:00,
2013-10-24 17:02:00,51.4,40.1,30.04,NE,51,0.0,1.0,65,0.00,,,0.00,100.0,meteohub,2013-10-24 21:02:00,
2013-10-24 17:07:00,51.4,39.7,30.04,SE,135,0.0,1.0,64,0.00,,,0.00,70.0,meteohub,2013-10-24 21:07:00,
2013-10-24 17:12:00,51.3,39.9,30.04,SE,135,0.0,2.0,65,0.00,,,0.00,84.0,meteohub,2013-10-24 21:12:00,
2013-10-24 17:17:00,51.1,40.5,30.04,SE,135,0.0,2.0,67,0.00,,,0.00,88.0,meteohub,2013-10-24 21:17:00,
2013-10-24 17:22:00,50.9,39.9,30.05,SE,135,0.0,2.0,66,0.00,,,0.00,62.0,meteohub,2013-10-24 21:22:00,
2013-10-24 17:27:00,50.7,40.1,30.04,SE,135,0.0,0.0,67,0.00,,,0.00,53.0,meteohub,2013-10-24 21:27:00,
2013-10-24 17:32:00,50.5,39.9,30.05,SE,135,0.0,0.0,67,0.00,,,0.00,44.0,meteohub,2013-10-24 21:32:00,
2013-10-24 17:37:00,50.2,40.8,30.05,SE,135,0.0,0.0,70,0.00,,,0.00,54.0,meteohub,2013-10-24 21:37:00,
2013-10-24 17:43:00,49.6,41.0,30.05,SE,135,0.0,0.0,72,0.00,,,0.00,30.0,meteohub,2013-10-24 21:43:00,
2013-10-24 17:49:00,49.3,40.6,30.05,NW,317,0.0,1.0,72,0.00,,,0.00,21.0,meteohub,2013-10-24 21:49:00,
2013-10-24 17:55:00,48.7,37.9,30.05,WSW,242,0.0,5.0,66,0.00,,,0.00,21.0,meteohub,2013-10-24 21:55:00,
2013-10-24 18:01:00,48.7,39.0,30.05,WSW,242,0.0,5.0,69,0.00,,,0.00,16.0,meteohub,2013-10-24 22:01:00,
2013-10-24 18:07:00,48.4,38.3,30.05,WSW,245,0.0,5.0,68,0.00,,,0.00,18.0,meteohub,2013-10-24 22:07:00,
2013-10-24 18:12:00,48.2,38.5,30.06,NE,36,0.0,2.0,69,0.00,,,0.00,14.0,meteohub,2013-10-24 22:12:00,
2013-10-24 18:17:00,47.8,38.5,30.06,SW,223,1.0,4.0,70,0.00,,,0.00,12.0,meteohub,2013-10-24 22:17:00,
2013-10-24 18:22:00,47.7,36.9,30.06,NNE,13,4.0,4.0,66,0.00,,,0.00,11.0,meteohub,2013-10-24 22:22:00,
2013-10-24 18:27:00,47.8,36.3,30.06,NNW,344,0.0,8.0,64,0.00,,,0.00,9.0,meteohub,2013-10-24 22:27:00,
2013-10-24 18:32:00,47.8,35.4,30.06,ENE,69,2.0,8.0,62,0.00,,,0.00,7.0,meteohub,2013-10-24 22:32:00,
2013-10-24 18:37:00,48.0,35.6,30.06,WNW,287,0.0,8.0,62,0.00,,,0.00,5.0,meteohub,2013-10-24 22:37:00,
2013-10-24 18:42:00,48.2,35.8,30.07,NW,314,1.0,9.0,62,0.00,,,0.00,0.0,meteohub,2013-10-24 22:42:00,
2013-10-24 18:47:00,48.2,34.5,30.07,ENE,62,0.0,10.0,59,0.00,,,0.00,0.0,meteohub,2013-10-24 22:47:00,
2013-10-24 18:52:00,48.4,34.7,30.07,NNE,17,0.0,10.0,59,0.00,,,0.00,0.0,meteohub,2013-10-24 22:52:00,
2013-10-24 18:57:00,48.4,34.7,30.07,NNE,32,0.0,4.0,59,0.00,,,0.00,0.0,meteohub,2013-10-24 22:57:00,
2013-10-24 19:02:00,48.4,34.7,30.07,WNW,288,0.0,14.0,59,0.00,,,0.00,0.0,meteohub,2013-10-24 23:02:00,
2013-10-24 19:07:00,48.0,34.3,30.07,ESE,123,0.0,14.0,59,0.00,,,0.00,0.0,meteohub,2013-10-24 23:07:00,
2013-10-24 19:12:00,48.0,34.9,30.07,WSW,246,0.0,2.0,60,0.00,,,0.00,0.0,meteohub,2013-10-24 23:12:00,
2013-10-24 19:17:00,47.7,34.5,30.07,NE,53,0.0,2.0,60,0.00,,,0.00,0.0,meteohub,2013-10-24 23:17:00,
2013-10-24 19:22:00,47.5,33.8,30.08,East,97,0.0,2.0,59,0.00,,,0.00,0.0,meteohub,2013-10-24 23:22:00,
2013-10-24 19:27:00,47.5,34.3,30.08,North,355,0.0,2.0,60,0.00,,,0.00,0.0,meteohub,2013-10-24 23:27:00,
2013-10-24 19:32:00,47.5,34.7,30.08,ESE,102,0.0,6.0,61,0.00,,,0.00,0.0,meteohub,2013-10-24 23:32:00,
2013-10-24 19:37:00,47.1,34.0,30.08,ESE,123,0.0,6.0,60,0.00,,,0.00,0.0,meteohub,2013-10-24 23:37:00,
2013-10-24 19:42:00,47.1,34.3,30.08,NNW,347,0.0,6.0,61,0.00,,,0.00,0.0,meteohub,2013-10-24 23:42:00,
2013-10-24 19:47:00,46.9,34.5,30.08,North,355,0.0,3.0,62,0.00,,,0.00,0.0,meteohub,2013-10-24 23:47:00,
2013-10-24 19:52:00,46.8,35.2,30.09,NNW,342,0.0,4.0,64,0.00,,,0.00,0.0,meteohub,2013-10-24 23:52:00,
2013-10-24 19:57:00,46.8,35.6,30.09,NE,34,0.0,4.0,65,0.00,,,0.00,0.0,meteohub,2013-10-24 23:57:00,
2013-10-24 20:02:00,46.6,35.8,30.09,NE,34,0.0,4.0,66,0.00,,,0.00,0.0,meteohub,2013-10-25 00:02:00,
2013-10-24 20:07:00,46.0,35.2,30.09,NE,34,0.0,3.0,66,0.00,,,0.00,0.0,meteohub,2013-10-25 00:07:00,
2013-10-24 20:12:00,45.7,35.8,30.09,North,5,0.0,1.0,68,0.00,,,0.00,0.0,meteohub,2013-10-25 00:12:00,
2013-10-24 20:17:00,45.1,36.0,30.09,North,5,2.0,2.0,70,0.00,,,0.00,0.0,meteohub,2013-10-25 00:17:00,
2013-10-24 20:22:00,44.8,36.3,30.10,North,5,1.0,2.0,72,0.00,,,0.00,0.0,meteohub,2013-10-25 00:22:00,
2013-10-24 20:27:00,44.2,36.1,30.10,North,5,1.0,2.0,73,0.00,,,0.00,0.0,meteohub,2013-10-25 00:27:00,
2013-10-24 20:32:00,43.9,36.1,30.10,North,5,2.0,2.0,74,0.00,,,0.00,0.0,meteohub,2013-10-25 00:32:00,
2013-10-24 20:37:00,43.5,36.1,30.10,North,5,3.0,3.0,75,0.00,,,0.00,0.0,meteohub,2013-10-25 00:37:00,
2013-10-24 20:42:00,43.2,36.1,30.10,North,5,1.0,3.0,76,0.00,,,0.00,0.0,meteohub,2013-10-25 00:42:00,
2013-10-24 20:47:00,43.2,35.8,30.10,North,5,3.0,3.0,75,0.00,,,0.00,0.0,meteohub,2013-10-25 00:47:00,
2013-10-24 20:53:00,43.2,36.1,30.10,North,5,0.0,3.0,76,0.00,,,0.00,0.0,meteohub,2013-10-25 00:53:00,
2013-10-24 20:59:00,43.2,35.8,30.10,North,5,1.0,5.0,75,0.00,,,0.00,0.0,meteohub,2013-10-25 00:59:00,
2013-10-24 21:05:00,43.0,35.2,30.10,North,5,0.0,5.0,74,0.00,,,0.00,0.0,meteohub,2013-10-25 01:05:00,
2013-10-24 21:11:00,43.2,35.4,30.11,North,355,2.0,4.0,74,0.00,,,0.00,0.0,meteohub,2013-10-25 01:11:00,
2013-10-24 21:17:00,43.0,36.0,30.11,North,5,2.0,5.0,76,0.00,,,0.00,0.0,meteohub,2013-10-25 01:17:00,
2013-10-24 21:22:00,42.8,35.8,30.11,North,5,3.0,5.0,76,0.00,,,0.00,0.0,meteohub,2013-10-25 01:22:00,
2013-10-24 21:27:00,42.6,35.6,30.11,North,5,3.0,5.0,76,0.00,,,0.00,0.0,meteohub,2013-10-25 01:27:00,
2013-10-24 21:32:00,42.4,35.8,30.11,North,5,3.0,5.0,77,0.00,,,0.00,0.0,meteohub,2013-10-25 01:32:00,
2013-10-24 21:37:00,42.3,36.0,30.11,North,5,4.0,6.0,78,0.00,,,0.00,0.0,meteohub,2013-10-25 01:37:00,
2013-10-24 21:42:00,42.3,35.6,30.11,North,5,2.0,8.0,77,0.00,,,0.00,0.0,meteohub,2013-10-25 01:42:00,
2013-10-24 21:47:00,42.1,35.4,30.11,North,5,4.0,9.0,77,0.00,,,0.00,0.0,meteohub,2013-10-25 01:47:00,
2013-10-24 21:52:00,42.1,35.8,30.11,North,5,4.0,9.0,78,0.00,,,0.00,0.0,meteohub,2013-10-25 01:52:00,
2013-10-24 21:57:00,42.1,36.0,30.11,North,5,2.0,9.0,79,0.00,,,0.00,0.0,meteohub,2013-10-25 01:57:00,
2013-10-24 22:02:00,42.1,36.0,30.11,North,5,1.0,9.0,79,0.00,,,0.00,0.0,meteohub,2013-10-25 02:02:00,
2013-10-24 22:07:00,42.1,36.0,30.11,North,5,2.0,9.0,79,0.00,,,0.00,0.0,meteohub,2013-10-25 02:07:00,
2013-10-24 22:12:00,42.1,35.8,30.11,North,5,3.0,9.0,78,0.00,,,0.00,0.0,meteohub,2013-10-25 02:12:00,
2013-10-24 22:17:00,41.9,35.6,30.11,North,5,3.0,9.0,78,0.00,,,0.00,0.0,meteohub,2013-10-25 02:17:00,
2013-10-24 22:22:00,41.9,35.8,30.11,North,5,3.0,8.0,79,0.00,,,0.00,0.0,meteohub,2013-10-25 02:22:00,
2013-10-24 22:27:00,41.9,35.8,30.11,North,5,2.0,7.0,79,0.00,,,0.00,0.0,meteohub,2013-10-25 02:27:00,
2013-10-24 22:32:00,41.7,35.4,30.11,North,5,2.0,8.0,78,0.00,,,0.00,0.0,meteohub,2013-10-25 02:32:00,
2013-10-24 22:37:00,41.7,35.8,30.11,North,5,4.0,8.0,79,0.00,,,0.00,0.0,meteohub,2013-10-25 02:37:00,
2013-10-24 22:42:00,41.7,35.8,30.11,North,5,2.0,8.0,79,0.00,,,0.00,0.0,meteohub,2013-10-25 02:42:00,
2013-10-24 22:47:00,41.7,35.4,30.11,North,5,0.0,8.0,78,0.00,,,0.00,0.0,meteohub,2013-10-25 02:47:00,
2013-10-24 22:52:00,41.9,35.6,30.11,North,5,2.0,8.0,78,0.00,,,0.00,0.0,meteohub,2013-10-25 02:52:00,
2013-10-24 22:57:00,42.1,35.1,30.11,North,5,1.0,8.0,76,0.00,,,0.00,0.0,meteohub,2013-10-25 02:57:00,
2013-10-24 23:02:00,42.1,35.4,30.11,North,5,3.0,8.0,77,0.00,,,0.00,0.0,meteohub,2013-10-25 03:02:00,
2013-10-24 23:07:00,42.1,35.4,30.12,North,5,2.0,7.0,77,0.00,,,0.00,0.0,meteohub,2013-10-25 03:07:00,
2013-10-24 23:12:00,42.1,35.4,30.11,North,0,2.0,7.0,77,0.00,,,0.00,0.0,meteohub,2013-10-25 03:12:00,
2013-10-24 23:17:00,42.1,35.4,30.11,North,5,3.0,8.0,77,0.00,,,0.00,0.0,meteohub,2013-10-25 03:17:00,
2013-10-24 23:22:00,42.1,35.4,30.11,North,5,1.0,8.0,77,0.00,,,0.00,0.0,meteohub,2013-10-25 03:22:00,
2013-10-24 23:27:00,42.1,35.4,30.11,North,5,2.0,8.0,77,0.00,,,0.00,0.0,meteohub,2013-10-25 03:27:00,
2013-10-24 23:32:00,42.1,35.4,30.11,North,5,3.0,7.0,77,0.00,,,0.00,0.0,meteohub,2013-10-25 03:32:00,
2013-10-24 23:37:00,41.9,35.2,30.11,North,5,0.0,6.0,77,0.00,,,0.00,0.0,meteohub,2013-10-25 03:37:00,
2013-10-24 23:42:00,41.9,35.2,30.11,North,355,3.0,6.0,77,0.00,,,0.00,0.0,meteohub,2013-10-25 03:42:00,
2013-10-24 23:47:00,41.7,35.1,30.11,North,355,2.0,8.0,77,0.00,,,0.00,0.0,meteohub,2013-10-25 03:47:00,
2013-10-24 23:52:00,41.7,35.1,30.11,North,349,0.0,8.0,77,0.00,,,0.00,0.0,meteohub,2013-10-25 03:52:00,
2013-10-24 23:57:00,41.5,35.2,30.12,North,355,2.0,8.0,78,0.00,,,0.00,0.0,meteohub,2013-10-25 03:57:00,